Voltar ao catálogo

FENGYUN 1C DEB

AtivoPO
NORAD 32458·DEBRIS·🇨🇳 China

Lançado May 10, 1999 de Taiyuan Satellite Launch Center

Loading…

Próximas Passagens (próximas 24 horas)

TLE

AtualizadoSource: Space-Track

Época: Sep 14, 2026, 08:52 UTC

1 32458U 99025DBW 26257.36979822  .00003788  00000-0  69659-3 0  9999
2 32458  99.0245 308.8511 0036516 243.2594 116.4868 14.65902294718236

Acompanhe FENGYUN 1C DEB em tempo real com AllMySat

Download on the App Store